Location: Haliburton Scout Reserve
(45.0900°N, 78.3200°W)
Time: 11:50:32
(UTC-04:00)

IDEFIX/ARIANE 42P - Visible Passes

Search period start: 30 September 2014 00:00
Search period end: 10 October 2014 00:00
Orbit: 787 x 803 km, 98.3° (Epoch: 29 September)

Date Brightness Start Highest point End Pass type
(mag) Time Alt. Az. Time Alt. Az. Time Alt. Az.
30 Sep 2.5 20:37:34 14° SSE 20:42:08 83° ENE 20:47:25 10° NNW visible
30 Sep 5.3 22:19:54 10° WSW 22:22:24 13° W 22:24:55 10° WNW visible
01 Oct 2.8 20:09:16 11° SE 20:14:05 48° ENE 20:19:08 10° N visible
01 Oct 4.6 21:50:07 11° SW 21:53:56 24° W 21:58:09 10° NW visible
02 Oct 3.5 19:41:45 10° ESE 19:46:10 29° ENE 19:50:37 10° N visible
02 Oct 3.7 21:21:49 16° SSW 21:25:35 41° W 21:30:34 10° NNW visible
03 Oct 4.1 19:14:59 10° E 19:18:21 18° ENE 19:21:44 10° NNE visible
03 Oct 2.7 20:53:32 19° S 20:57:22 73° WSW 21:02:39 10° NNW visible
04 Oct 2.5 20:25:14 17° SSE 20:29:15 65° ENE 20:34:29 10° N visible
04 Oct 5.0 22:06:04 11° SW 22:09:20 18° W 22:12:48 10° NW visible
05 Oct 3.1 19:56:57 12° SE 20:01:16 38° ENE 20:06:06 10° N visible
05 Oct 4.2 21:37:47 17° SW 21:40:56 30° W 21:45:33 10° NNW visible
06 Oct 3.7 19:29:22 10° ESE 19:33:24 23° ENE 19:37:27 10° NNE visible
06 Oct 3.2 21:09:30 23° SSW 21:12:38 53° W 21:17:48 10° NNW visible
07 Oct 2.5 20:41:12 24° SSE 20:44:28 88° ENE 20:49:46 10° NNW visible
07 Oct 5.3 22:22:36 10° WSW 22:24:47 13° W 22:26:59 10° WNW visible
08 Oct 2.7 20:12:55 20° SE 20:16:24 51° ENE 20:21:30 10° N visible
08 Oct 4.7 21:53:45 16° SW 21:56:18 22° W 22:00:23 10° NW visible
09 Oct 3.4 19:44:38 13° ESE 19:48:28 30° ENE 19:53:01 10° N visible
09 Oct 3.8 21:25:28 25° SSW 21:27:56 39° W 21:32:52 10° NNW visible
